Location: Bodest
(46.3000°N, 22.5667°E)
Time: 14:24:04
(UTC+00:00)

SL-19 R/B - Pass Details

Date: 05 June 2022
Orbit: 874 x 1208 km, 100.6° (Epoch: 03 July)

Event Time Altitude Azimuth Distance (km) Brightness Sun altitude
Rises 01:58:47 0° 90° (E) 3,740 8.4 -6.3°
Reaches altitude 10° 02:03:16 10° 60° (ENE) 2,878 8.7 -5.7°
Maximum altitude 02:05:14 12° 42° (NE) 2,801 8.7 -5.5°
Drops below altitude 10° 02:07:14 10° 24° (NNE) 2,952 8.3 -5.2°
Sets 02:12:01 0° 354° (N) 3,994 8.2 -4.6°
